Time,TemperatureF,DewpointF,PressureIn,WindDirection,WindDirectionDegrees,WindSpeedMPH,WindSpeedGustMPH,Humidity,HourlyPrecipIn,Conditions,Clouds,dailyrainin,SoftwareType,DateUTC
2013-10-14 00:14:00,58.9,59.0,30.20,NE,54,5.0,-999.0,100,-99.99,,,0.00,weatherlink.com 1.10,2013-10-13 21:14:00,
2013-10-14 00:29:00,58.9,59.0,30.20,ENE,65,5.0,-999.0,100,-99.99,,,0.00,weatherlink.com 1.10,2013-10-13 21:29:00,
2013-10-14 00:44:00,58.7,59.0,30.20,NE,54,5.0,-999.0,100,-99.99,,,0.00,weatherlink.com 1.10,2013-10-13 21:44:00,
2013-10-14 00:59:00,58.9,59.0,30.20,NE,37,2.0,-999.0,100,-99.99,,,0.00,weatherlink.com 1.10,2013-10-13 21:59:00,
2013-10-14 01:14:00,58.6,59.0,30.20,NE,37,2.0,-999.0,100,-99.99,,,0.00,weatherlink.com 1.10,2013-10-13 22:14:00,
2013-10-14 01:29:00,58.3,58.0,30.20,NE,37,3.0,-999.0,100,-99.99,,,0.00,weatherlink.com 1.10,2013-10-13 22:29:00,
2013-10-14 01:44:00,58.1,58.0,30.20,NE,37,2.0,-999.0,100,-99.99,,,0.00,weatherlink.com 1.10,2013-10-13 22:44:00,
2013-10-14 01:59:00,58.1,58.0,30.20,NE,37,2.0,-999.0,100,-99.99,,,0.00,weatherlink.com 1.10,2013-10-13 22:59:00,
2013-10-14 02:14:00,58.1,58.0,30.20,NE,37,0.0,-999.0,100,-99.99,,,0.00,weatherlink.com 1.10,2013-10-13 23:14:00,
2013-10-14 02:29:00,58.1,58.0,30.19,NE,37,0.0,-999.0,100,-99.99,,,0.00,weatherlink.com 1.10,2013-10-13 23:29:00,
2013-10-14 02:44:00,58.0,58.0,30.19,NE,37,0.0,-999.0,100,-99.99,,,0.00,weatherlink.com 1.10,2013-10-13 23:44:00,
2013-10-14 02:59:00,57.8,58.0,30.19,NE,37,3.0,-999.0,100,-99.99,,,0.00,weatherlink.com 1.10,2013-10-13 23:59:00,
2013-10-14 03:14:00,57.8,58.0,30.18,NE,37,3.0,-999.0,100,-99.99,,,0.00,weatherlink.com 1.10,2013-10-14 00:14:00,
2013-10-14 03:29:00,57.6,58.0,30.18,NE,37,0.0,-999.0,100,-99.99,,,0.00,weatherlink.com 1.10,2013-10-14 00:29:00,
2013-10-14 03:44:00,57.5,58.0,30.18,NE,37,4.0,-999.0,100,-99.99,,,0.00,weatherlink.com 1.10,2013-10-14 00:44:00,
2013-10-14 03:59:00,57.3,57.0,30.18,NE,37,4.0,-999.0,100,-99.99,,,0.00,weatherlink.com 1.10,2013-10-14 00:59:00,
2013-10-14 04:14:00,57.0,57.0,30.18,NE,37,2.0,-999.0,100,-99.99,,,0.00,weatherlink.com 1.10,2013-10-14 01:14:00,
2013-10-14 04:29:00,56.9,57.0,30.18,NE,37,0.0,-999.0,100,-99.99,,,0.00,weatherlink.com 1.10,2013-10-14 01:29:00,
2013-10-14 04:45:00,56.7,57.0,30.18,NE,37,0.0,-999.0,100,-99.99,,,0.00,weatherlink.com 1.10,2013-10-14 01:45:00,
2013-10-14 05:00:00,56.7,57.0,30.18,NE,37,0.0,-999.0,100,-99.99,,,0.00,weatherlink.com 1.10,2013-10-14 02:00:00,
2013-10-14 05:15:00,56.6,57.0,30.18,NE,37,0.0,-999.0,100,-99.99,,,0.00,weatherlink.com 1.10,2013-10-14 02:15:00,
2013-10-14 05:30:00,56.2,56.0,30.18,NE,37,0.0,-999.0,100,-99.99,,,0.00,weatherlink.com 1.10,2013-10-14 02:30:00,
2013-10-14 05:45:00,56.2,56.0,30.18,NE,37,0.0,-999.0,100,-99.99,,,0.00,weatherlink.com 1.10,2013-10-14 02:45:00,
2013-10-14 06:00:00,56.0,56.0,30.18,NE,37,2.0,-999.0,100,-99.99,,,0.00,weatherlink.com 1.10,2013-10-14 03:00:00,
2013-10-14 06:15:00,55.9,56.0,30.19,NE,37,0.0,-999.0,100,-99.99,,,0.00,weatherlink.com 1.10,2013-10-14 03:15:00,
2013-10-14 06:30:00,55.9,56.0,30.19,NE,37,3.0,-999.0,100,-99.99,,,0.00,weatherlink.com 1.10,2013-10-14 03:30:00,
2013-10-14 06:45:00,55.9,56.0,30.19,NE,37,3.0,-999.0,100,-99.99,,,0.00,weatherlink.com 1.10,2013-10-14 03:45:00,
2013-10-14 07:00:00,55.9,56.0,30.19,NE,41,2.0,-999.0,100,-99.99,,,0.00,weatherlink.com 1.10,2013-10-14 04:00:00,
2013-10-14 07:15:00,55.6,56.0,30.19,NE,41,0.0,-999.0,100,-99.99,,,0.00,weatherlink.com 1.10,2013-10-14 04:15:00,
2013-10-14 07:30:00,55.3,55.0,30.19,NE,41,0.0,-999.0,100,-99.99,,,0.00,weatherlink.com 1.10,2013-10-14 04:30:00,
2013-10-14 07:45:00,55.7,56.0,30.19,NE,42,2.0,-999.0,100,-99.99,,,0.00,weatherlink.com 1.10,2013-10-14 04:45:00,
2013-10-14 08:00:00,55.9,56.0,30.20,NE,42,0.0,-999.0,100,-99.99,,,0.00,weatherlink.com 1.10,2013-10-14 05:00:00,
2013-10-14 08:15:00,56.3,56.0,30.20,NE,42,0.0,-999.0,100,-99.99,,,0.00,weatherlink.com 1.10,2013-10-14 05:15:00,
2013-10-14 08:30:00,56.6,57.0,30.20,NE,42,3.0,-999.0,100,-99.99,,,0.00,weatherlink.com 1.10,2013-10-14 05:30:00,
2013-10-14 08:45:00,57.0,57.0,30.21,NNE,24,0.0,-999.0,100,-99.99,,,0.00,weatherlink.com 1.10,2013-10-14 05:45:00,
2013-10-14 09:00:00,57.6,58.0,30.21,NE,48,5.0,-999.0,100,-99.99,,,0.00,weatherlink.com 1.10,2013-10-14 06:00:00,
2013-10-14 09:15:00,58.3,58.0,30.21,ENE,69,4.0,-999.0,100,-99.99,,,0.00,weatherlink.com 1.10,2013-10-14 06:15:00,
2013-10-14 09:30:00,59.0,59.0,30.21,NE,52,7.0,-999.0,100,-99.99,,,0.00,weatherlink.com 1.10,2013-10-14 06:30:00,
2013-10-14 09:45:00,59.6,60.0,30.21,ENE,71,0.0,-999.0,100,-99.99,,,0.00,weatherlink.com 1.10,2013-10-14 06:45:00,
2013-10-14 10:00:00,59.6,60.0,30.21,East,85,3.0,-999.0,100,-99.99,,,0.00,weatherlink.com 1.10,2013-10-14 07:00:00,
2013-10-14 10:15:00,60.7,61.0,30.21,NE,44,2.0,-999.0,100,-99.99,,,0.00,weatherlink.com 1.10,2013-10-14 07:15:00,
2013-10-14 10:30:00,60.7,61.0,30.21,ENE,58,6.0,-999.0,100,-99.99,,,0.00,weatherlink.com 1.10,2013-10-14 07:30:00,
2013-10-14 10:45:00,61.3,61.0,30.21,East,80,0.0,-999.0,100,-99.99,,,0.00,weatherlink.com 1.10,2013-10-14 07:45:00,
2013-10-14 11:00:00,62.0,62.0,30.21,ESE,109,0.0,-999.0,100,-99.99,,,0.00,weatherlink.com 1.10,2013-10-14 08:00:00,
2013-10-14 11:15:00,62.3,62.0,30.21,NNE,32,5.0,-999.0,100,-99.99,,,0.00,weatherlink.com 1.10,2013-10-14 08:15:00,
2013-10-14 11:30:00,62.6,63.0,30.21,ENE,73,5.0,-999.0,100,-99.99,,,0.00,weatherlink.com 1.10,2013-10-14 08:30:00,
2013-10-14 11:45:00,62.9,63.0,30.21,ESE,104,0.0,-999.0,100,-99.99,,,0.00,weatherlink.com 1.10,2013-10-14 08:45:00,
2013-10-14 12:00:00,63.7,64.0,30.20,NNE,21,3.0,-999.0,100,-99.99,,,0.00,weatherlink.com 1.10,2013-10-14 09:00:00,
2013-10-14 12:15:00,64.2,64.0,30.20,NNE,23,4.0,-999.0,100,-99.99,,,0.00,weatherlink.com 1.10,2013-10-14 09:15:00,
2013-10-14 12:30:00,65.0,65.0,30.19,NNE,30,7.0,-999.0,100,-99.99,,,0.00,weatherlink.com 1.10,2013-10-14 09:30:00,
2013-10-14 12:45:00,65.5,66.0,30.19,North,8,6.0,-999.0,100,-99.99,,,0.00,weatherlink.com 1.10,2013-10-14 09:45:00,
2013-10-14 13:00:00,65.6,66.0,30.19,NE,40,6.0,-999.0,100,-99.99,,,0.00,weatherlink.com 1.10,2013-10-14 10:00:00,
2013-10-14 13:15:00,65.6,66.0,30.18,North,1,2.0,-999.0,100,-99.99,,,0.00,weatherlink.com 1.10,2013-10-14 10:15:00,
2013-10-14 13:30:00,66.3,66.0,30.18,NE,45,8.0,-999.0,100,-99.99,,,0.00,weatherlink.com 1.10,2013-10-14 10:30:00,
2013-10-14 13:45:00,66.0,66.0,30.17,NNE,23,7.0,-999.0,100,-99.99,,,0.00,weatherlink.com 1.10,2013-10-14 10:45:00,
2013-10-14 14:01:00,66.3,66.0,30.16,NNE,27,9.0,-999.0,100,-99.99,,,0.00,weatherlink.com 1.10,2013-10-14 11:01:00,
2013-10-14 14:16:00,66.0,66.0,30.16,North,357,0.0,-999.0,100,-99.99,,,0.00,weatherlink.com 1.10,2013-10-14 11:16:00,
2013-10-14 14:31:00,66.0,66.0,30.16,NNE,31,5.0,-999.0,100,-99.99,,,0.00,weatherlink.com 1.10,2013-10-14 11:31:00,
2013-10-14 14:46:00,65.6,66.0,30.16,NNE,20,10.0,-999.0,100,-99.99,,,0.00,weatherlink.com 1.10,2013-10-14 11:46:00,
2013-10-14 15:01:00,64.8,65.0,30.16,NE,52,0.0,-999.0,100,-99.99,,,0.00,weatherlink.com 1.10,2013-10-14 12:01:00,
2013-10-14 15:16:00,64.2,64.0,30.16,North,1,8.0,-999.0,100,-99.99,,,0.00,weatherlink.com 1.10,2013-10-14 12:16:00,
2013-10-14 15:31:00,64.2,64.0,30.16,North,11,12.0,-999.0,100,-99.99,,,0.00,weatherlink.com 1.10,2013-10-14 12:31:00,
2013-10-14 15:46:00,62.9,63.0,30.16,NNE,30,11.0,-999.0,100,-99.99,,,0.00,weatherlink.com 1.10,2013-10-14 12:46:00,
2013-10-14 16:01:00,62.7,63.0,30.16,North,6,7.0,-999.0,100,-99.99,,,0.00,weatherlink.com 1.10,2013-10-14 13:01:00,
2013-10-14 16:16:00,62.6,63.0,30.16,NNE,13,13.0,-999.0,100,-99.99,,,0.00,weatherlink.com 1.10,2013-10-14 13:16:00,
2013-10-14 16:31:00,62.6,63.0,30.15,NE,48,5.0,-999.0,100,-99.99,,,0.00,weatherlink.com 1.10,2013-10-14 13:31:00,
2013-10-14 16:46:00,62.3,62.0,30.15,NE,34,10.0,-999.0,100,-99.99,,,0.00,weatherlink.com 1.10,2013-10-14 13:46:00,
2013-10-14 17:01:00,62.0,62.0,30.15,NE,45,13.0,-999.0,100,-99.99,,,0.00,weatherlink.com 1.10,2013-10-14 14:01:00,
2013-10-14 17:16:00,61.5,62.0,30.15,NE,37,10.0,-999.0,100,-99.99,,,0.00,weatherlink.com 1.10,2013-10-14 14:16:00,
2013-10-14 17:31:00,61.3,61.0,30.16,NE,52,4.0,-999.0,100,-99.99,,,0.00,weatherlink.com 1.10,2013-10-14 14:31:00,
2013-10-14 17:46:00,60.9,61.0,30.16,North,11,2.0,-999.0,100,-99.99,,,0.00,weatherlink.com 1.10,2013-10-14 14:46:00,
2013-10-14 18:01:00,60.2,60.0,30.16,NNE,21,5.0,-999.0,100,-99.99,,,0.00,weatherlink.com 1.10,2013-10-14 15:01:00,
2013-10-14 18:16:00,59.8,60.0,30.16,NE,44,10.0,-999.0,100,-99.99,,,0.00,weatherlink.com 1.10,2013-10-14 15:16:00,
2013-10-14 18:31:00,59.3,59.0,30.16,NE,52,7.0,-999.0,100,-99.99,,,0.00,weatherlink.com 1.10,2013-10-14 15:31:00,
2013-10-14 18:46:00,58.9,59.0,30.17,NE,41,10.0,-999.0,100,-99.99,,,0.00,weatherlink.com 1.10,2013-10-14 15:46:00,
2013-10-14 19:01:00,58.6,59.0,30.17,NE,37,6.0,-999.0,100,-99.99,,,0.00,weatherlink.com 1.10,2013-10-14 16:01:00,
2013-10-14 19:16:00,58.3,58.0,30.17,NE,45,6.0,-999.0,100,-99.99,,,0.00,weatherlink.com 1.10,2013-10-14 16:16:00,
2013-10-14 19:31:00,58.0,58.0,30.17,NE,40,10.0,-999.0,100,-99.99,,,0.00,weatherlink.com 1.10,2013-10-14 16:31:00,
2013-10-14 19:46:00,57.8,58.0,30.18,NE,51,5.0,-999.0,100,-99.99,,,0.00,weatherlink.com 1.10,2013-10-14 16:46:00,
2013-10-14 20:01:00,57.6,58.0,30.18,NE,35,4.0,-999.0,100,-99.99,,,0.00,weatherlink.com 1.10,2013-10-14 17:01:00,
2013-10-14 20:16:00,57.5,58.0,30.18,ENE,58,7.0,-999.0,100,-99.99,,,0.00,weatherlink.com 1.10,2013-10-14 17:16:00,
2013-10-14 20:31:00,57.5,58.0,30.18,ENE,61,5.0,-999.0,100,-99.99,,,0.00,weatherlink.com 1.10,2013-10-14 17:31:00,
2013-10-14 20:46:00,57.5,58.0,30.18,ENE,59,5.0,-999.0,100,-99.99,,,0.00,weatherlink.com 1.10,2013-10-14 17:46:00,
2013-10-14 21:01:00,57.5,58.0,30.17,ENE,62,4.0,-999.0,100,-99.99,,,0.00,weatherlink.com 1.10,2013-10-14 18:01:00,
2013-10-14 21:16:00,57.5,58.0,30.17,ENE,78,5.0,-999.0,100,-99.99,,,0.00,weatherlink.com 1.10,2013-10-14 18:16:00,
2013-10-14 21:31:00,57.8,58.0,30.17,ENE,72,8.0,-999.0,100,-99.99,,,0.00,weatherlink.com 1.10,2013-10-14 18:31:00,
2013-10-14 21:46:00,57.8,58.0,30.17,ENE,66,9.0,-999.0,100,-99.99,,,0.00,weatherlink.com 1.10,2013-10-14 18:46:00,
2013-10-14 22:01:00,57.8,58.0,30.17,ENE,68,6.0,-999.0,100,-99.99,,,0.00,weatherlink.com 1.10,2013-10-14 19:01:00,
2013-10-14 22:16:00,57.8,58.0,30.17,ENE,72,8.0,-999.0,100,-99.99,,,0.00,weatherlink.com 1.10,2013-10-14 19:16:00,
2013-10-14 22:31:00,57.6,58.0,30.16,NE,49,7.0,-999.0,100,-99.99,,,0.00,weatherlink.com 1.10,2013-10-14 19:31:00,
2013-10-14 22:46:00,57.5,58.0,30.16,ENE,66,8.0,-999.0,100,-99.99,,,0.00,weatherlink.com 1.10,2013-10-14 19:46:00,
2013-10-14 23:01:00,57.3,57.0,30.16,ENE,72,6.0,-999.0,100,-99.99,,,0.00,weatherlink.com 1.10,2013-10-14 20:01:00,
2013-10-14 23:16:00,57.0,57.0,30.16,East,88,5.0,-999.0,100,-99.99,,,0.00,weatherlink.com 1.10,2013-10-14 20:16:00,
2013-10-14 23:31:00,57.0,57.0,30.16,East,86,5.0,-999.0,100,-99.99,,,0.00,weatherlink.com 1.10,2013-10-14 20:31:00,
2013-10-14 23:46:00,56.7,57.0,30.16,ENE,58,5.0,-999.0,100,-99.99,,,0.00,weatherlink.com 1.10,2013-10-14 20:46:00,